BEL8MP EBBR-EGCC

Flight info

Callsign BEL8MP
Flight time 0h 58m
Altitude 38000
Route DENUT L610 LAM UN57 WELIN T420 ELVOS
Aircraft A319/M-SDE3FGHIRWY/LB1

Departure

Time 2026-05-05 10:52
Airport Brussels Airport (EBBR)

Arrival

Time 2026-05-05 11:50
Airport Manchester Airport (EGCC)
Time Latitude Longitude Altitude Speed Heading
2026-05-05 10:22 50.90311 4.48259 121 ft 0 kts 155°
2026-05-05 10:39 50.90333 4.48243 116 ft 4 kts 152°
2026-05-05 10:39 50.90356 4.48222 118 ft 4 kts 144°
2026-05-05 10:40 50.90370 4.48204 119 ft 4 kts 133°
2026-05-05 10:40 50.90382 4.48173 118 ft 4 kts 83°
2026-05-05 10:40 50.90380 4.48157 119 ft 1 kts 65°
2026-05-05 10:40 50.90380 4.48156 119 ft 0 kts 65°
2026-05-05 10:43 50.90381 4.48162 119 ft 2 kts 65°
2026-05-05 10:44 50.90390 4.48190 118 ft 4 kts 65°
2026-05-05 10:44 50.90405 4.48246 121 ft 8 kts 65°
2026-05-05 10:44 50.90433 4.48344 119 ft 12 kts 65°
2026-05-05 10:44 50.90473 4.48483 120 ft 16 kts 65°
2026-05-05 10:45 50.90514 4.48621 119 ft 15 kts 65°
2026-05-05 10:45 50.90562 4.48791 119 ft 19 kts 65°
2026-05-05 10:45 50.90623 4.48999 120 ft 18 kts 65°
2026-05-05 10:45 50.90674 4.49176 118 ft 19 kts 66°
2026-05-05 10:46 50.90723 4.49347 122 ft 13 kts 65°
2026-05-05 10:46 50.90758 4.49471 122 ft 12 kts 65°
2026-05-05 10:46 50.90798 4.49607 123 ft 15 kts 65°
2026-05-05 10:46 50.90778 4.49717 123 ft 14 kts 167°
2026-05-05 10:47 50.90675 4.49682 124 ft 17 kts 195°
2026-05-05 10:47 50.90553 4.49632 124 ft 18 kts 194°
2026-05-05 10:47 50.90421 4.49578 124 ft 21 kts 194°
2026-05-05 10:47 50.90283 4.49521 122 ft 22 kts 194°
2026-05-05 10:48 50.90133 4.49460 126 ft 23 kts 194°
2026-05-05 10:48 50.89993 4.49404 132 ft 22 kts 194°
2026-05-05 10:48 50.89848 4.49344 140 ft 21 kts 194°
2026-05-05 10:48 50.89713 4.49289 148 ft 19 kts 194°
2026-05-05 10:49 50.89611 4.49233 154 ft 13 kts 220°
2026-05-05 10:49 50.89534 4.49175 159 ft 12 kts 194°
2026-05-05 10:49 50.89453 4.49143 162 ft 12 kts 194°
2026-05-05 10:49 50.89370 4.49108 165 ft 13 kts 195°
2026-05-05 10:50 50.89282 4.49073 169 ft 13 kts 193°
2026-05-05 10:50 50.89203 4.49040 175 ft 11 kts 196°
2026-05-05 10:50 50.89151 4.49089 176 ft 7 kts 101°
2026-05-05 10:50 50.89161 4.49151 176 ft 0 kts 70°
2026-05-05 10:51 50.89194 4.49301 176 ft 50 kts 70°
2026-05-05 10:51 50.89408 4.50222 177 ft 124 kts 70°
2026-05-05 10:51 50.89768 4.51765 424 ft 159 kts 68°
2026-05-05 10:52 50.90180 4.53360 1305 ft 158 kts 62°
2026-05-05 10:52 50.90688 4.54910 2092 ft 164 kts 55°
2026-05-05 10:52 50.91745 4.55868 2400 ft 197 kts
2026-05-05 10:52 50.93151 4.55194 2739 ft 236 kts 325°
2026-05-05 10:53 50.94268 4.53070 3409 ft 263 kts 304°
2026-05-05 10:53 50.95136 4.50452 4456 ft 271 kts 297°
2026-05-05 10:53 50.95928 4.47719 5591 ft 275 kts 297°
2026-05-05 10:53 50.96738 4.44946 6650 ft 279 kts 297°
2026-05-05 10:54 50.97594 4.42163 7698 ft 282 kts 298°
2026-05-05 10:54 50.98491 4.39385 8763 ft 284 kts 298°
2026-05-05 10:54 50.99424 4.36598 9816 ft 287 kts 299°
2026-05-05 10:54 51.00398 4.33745 10407 ft 306 kts 300°
2026-05-05 10:55 51.01453 4.30687 10951 ft 323 kts 300°
2026-05-05 10:55 51.02552 4.27513 11632 ft 332 kts 300°
2026-05-05 10:55 51.03674 4.24277 11847 ft 335 kts 300°
2026-05-05 10:55 51.04796 4.21030 11933 ft 335 kts 300°
2026-05-05 10:56 51.05913 4.17779 11972 ft 336 kts 299°
2026-05-05 10:56 51.07038 4.14504 12808 ft 339 kts 300°
2026-05-05 10:56 51.08178 4.11184 13695 ft 344 kts 300°
2026-05-05 10:56 51.09337 4.07813 14454 ft 350 kts 299°
2026-05-05 10:57 51.10508 4.04390 15200 ft 354 kts 299°
2026-05-05 10:57 51.11677 4.00962 15928 ft 359 kts 298°
2026-05-05 10:57 51.12879 3.97442 16644 ft 365 kts 298°
2026-05-05 10:57 51.14103 3.93864 17310 ft 371 kts 298°
2026-05-05 10:58 51.15283 3.90409 18048 ft 374 kts 298°
2026-05-05 10:58 51.16531 3.86746 18745 ft 377 kts 297°
2026-05-05 10:58 51.17778 3.83060 19462 ft 379 kts 297°
2026-05-05 10:58 51.19037 3.79330 20096 ft 384 kts 296°
2026-05-05 10:59 51.20309 3.75563 20712 ft 388 kts 298°
2026-05-05 10:59 51.21594 3.71752 21383 ft 392 kts 296°
2026-05-05 10:59 51.22870 3.67916 22126 ft 392 kts 295°
2026-05-05 10:59 51.23849 3.63852 22807 ft 393 kts 283°
2026-05-05 11:00 51.24453 3.59597 23446 ft 395 kts 279°
2026-05-05 11:00 51.25021 3.55279 24003 ft 399 kts 279°
2026-05-05 11:00 51.25592 3.50938 24579 ft 400 kts 279°
2026-05-05 11:00 51.26164 3.46579 25141 ft 402 kts 280°
2026-05-05 11:01 51.26732 3.42260 25685 ft 404 kts 280°
2026-05-05 11:01 51.27317 3.37804 26234 ft 406 kts 279°
2026-05-05 11:01 51.27891 3.33382 26777 ft 408 kts 279°
2026-05-05 11:01 51.28456 3.28993 27334 ft 409 kts 279°
2026-05-05 11:02 51.29027 3.24538 27891 ft 410 kts 279°
2026-05-05 11:02 51.29599 3.20062 28455 ft 411 kts 279°
2026-05-05 11:02 51.30170 3.15585 29014 ft 412 kts 279°
2026-05-05 11:02 51.30742 3.11077 29531 ft 414 kts 279°
2026-05-05 11:03 51.31315 3.06553 30025 ft 417 kts 278°
2026-05-05 11:03 51.31890 3.01990 30435 ft 419 kts 278°
2026-05-05 11:03 51.32466 2.97421 30825 ft 421 kts 278°
2026-05-05 11:03 51.33046 2.92817 31215 ft 423 kts 278°
2026-05-05 11:04 51.33627 2.88184 31600 ft 426 kts 278°
2026-05-05 11:04 51.34206 2.83545 32113 ft 425 kts 278°
2026-05-05 11:04 51.34780 2.78914 32653 ft 423 kts 278°
2026-05-05 11:04 51.35349 2.74300 33208 ft 421 kts 278°
2026-05-05 11:05 51.35913 2.69719 33776 ft 419 kts 278°
2026-05-05 11:05 51.36476 2.65152 34274 ft 418 kts 278°
2026-05-05 11:05 51.37038 2.60592 34687 ft 417 kts 278°
2026-05-05 11:05 51.37591 2.56091 35054 ft 418 kts 278°
2026-05-05 11:06 51.38147 2.51530 35411 ft 418 kts 278°
2026-05-05 11:06 51.38701 2.46957 35761 ft 419 kts 278°
2026-05-05 11:06 51.39256 2.42377 36096 ft 419 kts 278°
2026-05-05 11:06 51.39812 2.37792 36441 ft 419 kts 279°
2026-05-05 11:07 51.40366 2.33203 36753 ft 420 kts 279°
2026-05-05 11:07 51.40914 2.28612 37058 ft 421 kts 279°
2026-05-05 11:07 51.41464 2.23994 37363 ft 421 kts 279°
2026-05-05 11:07 51.42023 2.19389 37660 ft 422 kts 279°
2026-05-05 11:08 51.42589 2.14777 37908 ft 423 kts 279°
2026-05-05 11:08 51.44224 2.05763 37964 ft 425 kts 296°
2026-05-05 11:09 51.47545 1.97881 37969 ft 428 kts 305°
2026-05-05 11:09 51.51120 1.90240 37978 ft 427 kts 303°
2026-05-05 11:10 51.54417 1.82319 37976 ft 426 kts 300°
2026-05-05 11:10 51.57509 1.74250 37980 ft 426 kts 299°
2026-05-05 11:11 51.60608 1.66147 37989 ft 426 kts 300°
2026-05-05 11:11 51.63746 1.58067 37994 ft 425 kts 300°
2026-05-05 11:12 51.66896 1.49998 37987 ft 425 kts 300°
2026-05-05 11:12 51.70034 1.41910 37990 ft 426 kts 300°
2026-05-05 11:13 51.73166 1.33793 37981 ft 426 kts 300°
2026-05-05 11:13 51.76273 1.25713 37979 ft 427 kts 300°
2026-05-05 11:14 51.79407 1.17573 37981 ft 427 kts 300°
2026-05-05 11:14 51.82533 1.09404 37978 ft 428 kts 300°
2026-05-05 11:15 51.85662 1.01195 37974 ft 428 kts 300°
2026-05-05 11:15 51.88793 0.92977 37979 ft 429 kts 300°
2026-05-05 11:16 51.91914 0.84736 37975 ft 430 kts 300°
2026-05-05 11:16 51.95031 0.76469 37981 ft 430 kts 300°
2026-05-05 11:17 51.98148 0.68184 37986 ft 431 kts 299°
2026-05-05 11:17 52.01259 0.59867 37992 ft 431 kts 299°
2026-05-05 11:18 52.04375 0.51544 37641 ft 435 kts 299°
2026-05-05 11:18 52.05932 0.47381 36926 ft 437 kts 300°
2026-05-05 11:18 52.07509 0.43166 36350 ft 435 kts 299°
2026-05-05 11:18 52.09073 0.38974 35844 ft 431 kts 299°
2026-05-05 11:19 52.10616 0.34823 35367 ft 427 kts 299°
2026-05-05 11:19 52.12144 0.30708 34899 ft 423 kts 299°
2026-05-05 11:19 52.13656 0.26625 34448 ft 419 kts 299°
2026-05-05 11:19 52.15151 0.22579 34002 ft 415 kts 298°
2026-05-05 11:20 52.16628 0.18568 33483 ft 411 kts 298°
2026-05-05 11:20 52.18089 0.14594 32996 ft 407 kts 298°
2026-05-05 11:20 52.19539 0.10640 32514 ft 403 kts 297°
2026-05-05 11:20 52.20975 0.06732 32034 ft 399 kts 297°
2026-05-05 11:21 52.22397 0.02859 31573 ft 396 kts 297°
2026-05-05 11:21 52.23800 -0.00971 31113 ft 392 kts 297°
2026-05-05 11:21 52.25180 -0.04742 30590 ft 392 kts 297°
2026-05-05 11:21 52.26570 -0.08552 30130 ft 389 kts 297°
2026-05-05 11:22 52.27948 -0.12341 29643 ft 387 kts 297°
2026-05-05 11:22 52.29313 -0.16104 29182 ft 383 kts 297°
2026-05-05 11:22 52.30663 -0.19826 28743 ft 379 kts 297°
2026-05-05 11:22 52.32003 -0.23520 28303 ft 376 kts 297°
2026-05-05 11:23 52.33334 -0.27192 27860 ft 374 kts 297°
2026-05-05 11:23 52.34653 -0.30838 27425 ft 371 kts 297°
2026-05-05 11:23 52.35961 -0.34460 26976 ft 368 kts 297°
2026-05-05 11:23 52.37260 -0.38069 26528 ft 366 kts 297°
2026-05-05 11:24 52.38549 -0.41649 26141 ft 364 kts 297°
2026-05-05 11:24 52.39831 -0.45211 25838 ft 363 kts 297°
2026-05-05 11:24 52.41094 -0.48727 25545 ft 361 kts 297°
2026-05-05 11:24 52.42365 -0.52272 25244 ft 360 kts 297°
2026-05-05 11:25 52.43625 -0.55795 24948 ft 358 kts 297°
2026-05-05 11:25 52.44879 -0.59302 24920 ft 356 kts 297°
2026-05-05 11:25 52.46132 -0.62813 24989 ft 358 kts 297°
2026-05-05 11:25 52.47386 -0.66335 24996 ft 358 kts 297°
2026-05-05 11:26 52.48644 -0.69867 24906 ft 359 kts 297°
2026-05-05 11:26 52.49897 -0.73393 24612 ft 357 kts 297°
2026-05-05 11:26 52.51145 -0.76900 24322 ft 355 kts 297°
2026-05-05 11:26 52.52386 -0.80389 24043 ft 353 kts 298°
2026-05-05 11:27 52.53619 -0.83865 23755 ft 351 kts 297°
2026-05-05 11:27 52.54840 -0.87320 23400 ft 348 kts 297°
2026-05-05 11:27 52.56051 -0.90753 22922 ft 345 kts 297°
2026-05-05 11:27 52.57249 -0.94152 22467 ft 342 kts 297°
2026-05-05 11:28 52.58438 -0.97530 22024 ft 340 kts 297°
2026-05-05 11:28 52.59616 -1.00881 21622 ft 338 kts 298°
2026-05-05 11:28 52.60786 -1.04216 21215 ft 335 kts 298°
2026-05-05 11:28 52.61944 -1.07517 20799 ft 333 kts 298°
2026-05-05 11:29 52.63096 -1.10803 20389 ft 330 kts 298°
2026-05-05 11:29 52.64243 -1.14070 19986 ft 328 kts 298°
2026-05-05 11:29 52.65378 -1.17316 19599 ft 326 kts 297°
2026-05-05 11:29 52.66502 -1.20548 19217 ft 324 kts 297°
2026-05-05 11:30 52.67615 -1.23756 18847 ft 321 kts 297°
2026-05-05 11:30 52.68350 -1.25869 18605 ft 320 kts 298°
2026-05-05 11:30 52.69546 -1.28945 18229 ft 320 kts 306°
2026-05-05 11:30 52.71666 -1.32308 17699 ft 320 kts 322°
2026-05-05 11:31 52.73549 -1.34266 17289 ft 319 kts 326°
2026-05-05 11:31 52.75433 -1.36172 16917 ft 317 kts 326°
2026-05-05 11:31 52.76703 -1.37466 16693 ft 316 kts 326°
2026-05-05 11:31 52.78566 -1.39368 16341 ft 313 kts 326°
2026-05-05 11:32 52.80389 -1.41235 15991 ft 311 kts 326°
2026-05-05 11:32 52.82227 -1.43116 15643 ft 309 kts 326°
2026-05-05 11:32 52.84047 -1.44980 15305 ft 307 kts 326°
2026-05-05 11:32 52.85862 -1.46840 14971 ft 306 kts 326°
2026-05-05 11:33 52.87535 -1.48967 14624 ft 302 kts 316°
2026-05-05 11:33 52.89102 -1.51266 14284 ft 301 kts 316°
2026-05-05 11:33 52.90663 -1.53558 13976 ft 299 kts 317°
2026-05-05 11:33 52.92213 -1.55836 13648 ft 297 kts 317°
2026-05-05 11:34 52.93751 -1.58096 13292 ft 295 kts 317°
2026-05-05 11:34 52.95281 -1.60350 12926 ft 293 kts 317°
2026-05-05 11:34 52.96797 -1.62585 12563 ft 291 kts 317°
2026-05-05 11:34 52.98307 -1.64813 12196 ft 290 kts 317°
2026-05-05 11:35 52.99806 -1.67029 11838 ft 288 kts 317°
2026-05-05 11:35 53.01294 -1.69235 11458 ft 286 kts 317°
2026-05-05 11:35 53.02777 -1.71436 11097 ft 285 kts 317°
2026-05-05 11:35 53.04248 -1.73621 10819 ft 283 kts 317°
2026-05-05 11:36 53.05712 -1.75796 10451 ft 282 kts 317°
2026-05-05 11:36 53.07176 -1.77971 10061 ft 281 kts 317°
2026-05-05 11:36 53.08624 -1.80120 9720 ft 278 kts 317°
2026-05-05 11:36 53.10060 -1.82255 9319 ft 276 kts 317°
2026-05-05 11:37 53.11488 -1.84382 8914 ft 275 kts 317°
2026-05-05 11:37 53.12912 -1.86507 8537 ft 272 kts 317°
2026-05-05 11:37 53.14284 -1.88559 8408 ft 259 kts 317°
2026-05-05 11:37 53.15587 -1.90509 8193 ft 252 kts 317°
2026-05-05 11:38 53.16904 -1.92480 7812 ft 251 kts 317°
2026-05-05 11:38 53.18180 -1.94391 7469 ft 248 kts 317°
2026-05-05 11:38 53.19460 -1.96308 7093 ft 247 kts 318°
2026-05-05 11:38 53.20738 -1.98221 6722 ft 246 kts 318°
2026-05-05 11:39 53.22002 -2.00119 6384 ft 243 kts 317°
2026-05-05 11:39 53.22995 -2.02355 6071 ft 241 kts 292°
2026-05-05 11:39 53.23142 -2.05127 6055 ft 246 kts 260°
2026-05-05 11:39 53.22534 -2.07831 6052 ft 250 kts 246°
2026-05-05 11:40 53.21787 -2.10455 6055 ft 251 kts 246°
2026-05-05 11:40 53.21024 -2.13068 6052 ft 251 kts 245°
2026-05-05 11:40 53.20263 -2.15688 6054 ft 251 kts 245°
2026-05-05 11:40 53.19495 -2.18300 6053 ft 251 kts 245°
2026-05-05 11:41 53.18725 -2.20906 6048 ft 251 kts 245°
2026-05-05 11:41 53.17947 -2.23511 6051 ft 251 kts 245°
2026-05-05 11:41 53.17167 -2.26115 6054 ft 251 kts 245°
2026-05-05 11:41 53.16395 -2.28721 6056 ft 251 kts 246°
2026-05-05 11:42 53.15627 -2.31324 6053 ft 247 kts 245°
2026-05-05 11:42 53.14898 -2.33811 6047 ft 232 kts 246°
2026-05-05 11:42 53.14189 -2.36177 6047 ft 222 kts 246°
2026-05-05 11:42 53.13507 -2.38457 6053 ft 219 kts 245°
2026-05-05 11:43 53.12819 -2.40718 6026 ft 218 kts 246°
2026-05-05 11:43 53.12137 -2.42958 5743 ft 217 kts 246°
2026-05-05 11:43 53.11854 -2.45354 5453 ft 210 kts 277°
2026-05-05 11:43 53.12446 -2.47471 5180 ft 201 kts 315°
2026-05-05 11:44 53.13512 -2.48972 4881 ft 202 kts 324°
2026-05-05 11:44 53.14637 -2.50348 4648 ft 199 kts 325°
2026-05-05 11:44 53.15736 -2.51683 4395 ft 197 kts 325°
2026-05-05 11:44 53.16841 -2.53026 4148 ft 195 kts 325°
2026-05-05 11:45 53.17915 -2.54324 4015 ft 186 kts 325°
2026-05-05 11:45 53.18940 -2.55557 3848 ft 178 kts 326°
2026-05-05 11:45 53.20088 -2.56143 3555 ft 176 kts
2026-05-05 11:45 53.21229 -2.55450 3343 ft 178 kts 33°
2026-05-05 11:46 53.22081 -2.53918 3115 ft 182 kts 47°
2026-05-05 11:46 53.22883 -2.52273 3019 ft 183 kts 48°
2026-05-05 11:46 53.23688 -2.50624 3009 ft 184 kts 48°
2026-05-05 11:46 53.24490 -2.48978 2881 ft 182 kts 47°
2026-05-05 11:47 53.25284 -2.47351 2718 ft 178 kts 47°
2026-05-05 11:47 53.26051 -2.45776 2508 ft 172 kts 49°
2026-05-05 11:47 53.26790 -2.44258 2277 ft 165 kts 47°
2026-05-05 11:47 53.27512 -2.42776 2049 ft 163 kts 46°
2026-05-05 11:48 53.28932 -2.39858 1607 ft 161 kts 47°
2026-05-05 11:48 53.29606 -2.38466 1392 ft 145 kts 47°
2026-05-05 11:48 53.30201 -2.37241 1198 ft 132 kts 47°
2026-05-05 11:49 53.30768 -2.36074 1005 ft 130 kts 46°
2026-05-05 11:49 53.31334 -2.34909 821 ft 128 kts 45°
2026-05-05 11:49 53.31895 -2.33752 645 ft 128 kts 48°
2026-05-05 11:49 53.32458 -2.32595 477 ft 130 kts 47°
2026-05-05 11:50 53.33024 -2.31422 315 ft 130 kts 46°
2026-05-05 11:50 53.33577 -2.30285 237 ft 114 kts 50°
2026-05-05 11:50 53.33977 -2.29452 233 ft 67 kts 51°
2026-05-05 11:50 53.34168 -2.29058 234 ft 28 kts 51°
2026-05-05 11:51 53.34293 -2.28799 231 ft 29 kts 51°
2026-05-05 11:51 53.34409 -2.28615 230 ft 22 kts 34°
2026-05-05 11:51 53.34504 -2.28535 235 ft 12 kts 24°
2026-05-05 11:51 53.34585 -2.28483 233 ft 13 kts 20°
2026-05-05 11:52 53.34675 -2.28426 233 ft 15 kts 21°
2026-05-05 11:52 53.34749 -2.28325 233 ft 14 kts 52°
2026-05-05 11:52 53.34798 -2.28221 233 ft 11 kts 52°
2026-05-05 11:52 53.34847 -2.28116 234 ft 12 kts 50°
2026-05-05 11:53 53.34906 -2.27999 234 ft 14 kts 51°
2026-05-05 11:53 53.34974 -2.27855 233 ft 18 kts 51°
2026-05-05 11:53 53.35057 -2.27685 233 ft 17 kts 51°
2026-05-05 11:53 53.35138 -2.27517 233 ft 19 kts 51°
2026-05-05 11:54 53.35225 -2.27336 233 ft 21 kts 51°
2026-05-05 11:54 53.35306 -2.27200 233 ft 16 kts 25°
2026-05-05 11:54 53.35416 -2.27246 236 ft 17 kts 322°
2026-05-05 11:54 53.35506 -2.27368 237 ft 18 kts 321°
2026-05-05 11:55 53.35587 -2.27478 233 ft 15 kts 321°
2026-05-05 11:55 53.35656 -2.27572 233 ft 11 kts 321°
2026-05-05 11:55 53.35695 -2.27619 233 ft 6 kts 332°
2026-05-05 11:55 53.35701 -2.27623 235 ft 2 kts 338°
2026-05-05 11:56 53.35710 -2.27627 234 ft 0 kts 344°
2026-05-05 11:56 53.35720 -2.27632 233 ft 4 kts 342°
2026-05-05 11:57 53.35766 -2.27661 233 ft 10 kts 335°
2026-05-05 11:57 53.35835 -2.27732 233 ft 14 kts 351°
2026-05-05 11:57 53.35937 -2.27727 233 ft 15 kts
2026-05-05 11:57 53.36028 -2.27811 233 ft 17 kts 323°
2026-05-05 11:58 53.36119 -2.27935 233 ft 16 kts 314°
2026-05-05 11:58 53.36207 -2.28083 233 ft 20 kts 315°
2026-05-05 11:58 53.36302 -2.28243 233 ft 21 kts 315°
2026-05-05 11:58 53.36395 -2.28398 233 ft 19 kts 314°
2026-05-05 11:59 53.36471 -2.28560 233 ft 20 kts 314°
2026-05-05 11:59 53.36557 -2.28709 233 ft 17 kts 314°
2026-05-05 11:59 53.36634 -2.28767 233 ft 9 kts 35°
2026-05-05 11:59 53.36647 -2.28670 233 ft 8 kts 110°
2026-05-05 12:00 53.36621 -2.28625 234 ft 3 kts 136°
2026-05-05 12:00 53.36618 -2.28620 235 ft 0 kts 135°